Location: Lawrence
(38.9720°N, 95.2350°W)
Time: 18:47:47
(UTC-06:00)

Amateur Radio Satellites - All Passes

Search period start: 05 December 2016 18:17
Search period end: 06 December 2016 18:17
Location: Lawrence, 38.9720°N, 95.2350°W

Satellite Date Start Highest point End Downlink Frequencies (MHz)
Time Altitude Azimuth
CINEMA 3 05 Dec 18:21:23 18:25:48 34° 70° (ENE) 18:30:19 145.822/145.860
GOMX 1 05 Dec 18:24:19 18:27:57 24° 267° (W) 18:31:48 467.674
NOAA 15 05 Dec 18:32:49 18:37:34 34° 263° (W) 18:42:20 137.62
Cubesat XI-IV 05 Dec 18:33:43 18:38:43 39° 262° (W) 18:43:45 437.490
Cosmos 2491 05 Dec 18:34:47 18:43:33 86° 82° (E) 18:52:17 435.465 / 435.565
Cosmos 2504 05 Dec 18:35:41 18:40:43 18° 77° (ENE) 18:45:54 435.465 / 435.565
DOVE 4 05 Dec 18:36:15 18:40:45 44° 262° (W) 18:45:33 437.250
CUTE 1.7 + AOD 2 05 Dec 18:38:49 18:42:23 27° 70° (ENE) 18:45:57 437.475
CUBEBUG 2 05 Dec 18:44:45 18:47:33 16° 65° (ENE) 18:50:20 437.445
CUBESAT XI-V 05 Dec 18:45:54 18:48:29 15° 296° (WNW) 18:51:06 437.345
RS-15 05 Dec 18:49:36 18:59:50 33° 257° (WSW) 19:09:48 29.354- 29.394
STRAND 1 05 Dec 18:54:18 18:58:28 25° 95° (E) 19:02:35 437.568
CANX-2 05 Dec 18:56:07 19:00:11 50° 74° (ENE) 19:04:17 2200.000
YUBILEINY 05 Dec 19:00:19 19:08:45 57° 90° (E) 19:17:14 435.215
LilacSat-2 05 Dec 19:01:53 19:03:20 12° 268° (W) 19:04:47 437.200
AAUSAT CUBESAT 2 05 Dec 19:05:35 19:08:27 19° 68° (ENE) 19:11:19 437.432
SEEDS 05 Dec 19:22:33 19:26:38 58° 75° (ENE) 19:30:45 437.485
UWE-3 05 Dec 19:27:00 19:30:54 27° 69° (ENE) 19:34:46 435.000/436.395/437.385
HO-68 05 Dec 19:29:06 19:36:16 78° 256° (WSW) 19:43:29 435.675
COMPASS 1 05 Dec 19:34:00 19:38:00 51° 74° (ENE) 19:42:00 437.405
CUSAT 1 05 Dec 19:34:10 19:36:02 13° 76° (ENE) 19:38:05 437.405
AIST 1 05 Dec 19:41:50 19:45:54 43° 92° (E) 19:50:01
NOAA 18 05 Dec 19:57:08 19:58:38 11° 271° (W) 20:00:09 137.9125
CINEMA 3 05 Dec 19:58:53 20:02:55 25° 266° (W) 20:07:03 145.822/145.860
PCSat 05 Dec 20:00:31 20:04:57 25° 50° (NE) 20:09:21 145.827
SO-50 05 Dec 20:05:11 20:09:51 55° 117° (ESE) 20:14:29 436.795
ZACube-1 05 Dec 20:08:40 20:13:00 45° 73° (ENE) 20:17:18 437.345
DELFI C3 05 Dec 20:09:32 20:11:09 12° 65° (ENE) 20:12:47 145.870
CUTE 1.7 + AOD 2 05 Dec 20:14:49 20:18:10 23° 265° (W) 20:21:31 437.475
FUNcube-1 05 Dec 20:16:34 20:20:57 50° 74° (ENE) 20:25:18 145.935
CUBEBUG 2 05 Dec 20:19:01 20:23:41 55° 260° (W) 20:28:21 437.445
Cosmos 2504 05 Dec 20:24:27 20:32:45 88° 277° (W) 20:41:37 435.465 / 435.565
STRAND 1 05 Dec 20:33:03 20:37:41 36° 291° (WNW) 20:42:17 437.568
Cosmos 2491 05 Dec 20:33:58 20:39:09 18° 282° (WNW) 20:44:21 435.465 / 435.565
CANX-2 05 Dec 20:34:35 20:36:19 12° 269° (W) 20:38:03 2200.000
AAUSAT CUBESAT 2 05 Dec 20:39:59 20:43:41 32° 263° (W) 20:47:23 437.432
Oscar 11 05 Dec 20:47:53 20:52:12 75° 259° (W) 20:56:31 145.826/435.025
YUBILEINY 05 Dec 20:58:37 21:05:57 30° 290° (WNW) 21:13:23 435.215
SEEDS 05 Dec 21:02:12 21:02:41 10° 270° (W) 21:03:10 437.485
UWE-3 05 Dec 21:03:12 21:07:14 29° 264° (W) 21:11:16 435.000/436.395/437.385
COMPASS 1 05 Dec 21:12:28 21:13:50 11° 269° (W) 21:15:11 437.405
CUSAT 1 05 Dec 21:14:15 21:17:47 40° 263° (W) 21:22:20 437.405
AIST 1 05 Dec 21:21:22 21:23:44 14° 289° (WNW) 21:26:07
HO-68 05 Dec 21:22:50 21:25:00 11° 272° (W) 21:27:10 435.675
ISS 05 Dec 21:26:32 21:28:25 14° 18° (NNE) 21:30:17 145.825
HUMSAT D 05 Dec 21:40:09 21:44:23 79° 75° (ENE) 21:48:34 437.325/437.525
DELFI C3 05 Dec 21:41:45 21:45:32 47° 261° (W) 21:49:20 145.870
PCSat 05 Dec 21:43:22 21:48:34 48° 248° (WSW) 21:53:44 145.827
PRISM 05 Dec 21:46:34 21:50:43 73° 286° (WNW) 21:54:52 437.425
ZACube-1 05 Dec 21:46:36 21:49:27 16° 268° (W) 21:52:17 437.345
SO-50 05 Dec 21:47:10 21:50:38 20° 314° (NW) 21:54:05 436.795
FUNcube-1 05 Dec 21:54:57 21:57:25 14° 268° (W) 21:59:52 145.935
DANDE 05 Dec 21:56:53 21:59:40 46° 261° (W) 22:03:02 436.750
UNISAT 6 05 Dec 22:12:32 22:16:45 43° 99° (E) 22:20:50 437.425
Cosmos 2504 05 Dec 22:22:09 22:27:30 18° 298° (WNW) 22:33:02 435.465 / 435.565
SPROUT 05 Dec 22:35:34 22:36:52 11° 63° (ENE) 22:38:11 437.525
JAS-2 05 Dec 22:39:45 22:43:01 16° 93° (E) 22:46:21 435.910
TIGRISAT 05 Dec 22:42:31 22:46:56 89° 284° (WNW) 22:51:13 435.000
ANTELSAT 05 Dec 22:43:54 22:48:19 81° 284° (WNW) 22:52:36 437.575/2403.000
ESTCUBE 1 05 Dec 22:47:57 22:52:21 61° 75° (ENE) 22:56:46 437.505/2401.250
NANOSAT C BR1 05 Dec 22:56:10 22:57:46 12° 91° (E) 22:59:22 145.865
AISAT 05 Dec 22:56:19 23:00:14 32° 70° (ENE) 23:04:11 437.250
QB50P2 05 Dec 23:00:46 23:03:26 16° 93° (E) 23:06:05 145.880/145.840
POLYITAN 1 05 Dec 23:01:27 23:03:58 15° 93° (E) 23:06:27 437.675
ISS 05 Dec 23:02:10 23:05:28 61° 37° (NE) 23:08:44 145.825
50 SAT 05 Dec 23:06:12 23:09:10 26° 71° (ENE) 23:12:10 437.505
QB50P1 05 Dec 23:13:58 23:17:14 21° 95° (E) 23:20:28 145.935-145.965
DUCHIFAT 1 05 Dec 23:17:15 23:20:20 20° 94° (E) 23:23:24 145.980
CUBEBUG 1 05 Dec 23:22:41 23:27:02 89° 70° (ENE) 23:31:27 437.445
Cosmos 2499 05 Dec 23:27:55 23:33:56 22° 79° (E) 23:40:04 435.465 / 435.565
VELOX 1 05 Dec 23:32:42 23:37:05 78° 75° (ENE) 23:41:32 145.980
POPSAT HIP 1 05 Dec 23:34:56 23:38:52 36° 98° (E) 23:42:45 437.405
PHONESAT 2.4 05 Dec 23:37:59 23:39:06 12° 148° (SSE) 23:40:13 2401.200-2431.200
GONETS M04 05 Dec 23:40:10 23:46:35 24° 81° (E) 23:52:58
DX 1 05 Dec 23:47:03 23:51:19 59° 74° (ENE) 23:55:37 434.975-435.025
UNISAT 6 05 Dec 23:50:23 23:53:03 16° 295° (WNW) 23:55:42 437.425
UKube-1 05 Dec 23:54:47 23:58:58 53° 73° (ENE) 00:03:12 .
TISAT 1 05 Dec 23:57:13 23:59:37 15° 65° (ENE) 00:02:01 437.305
SPROUT 06 Dec 00:07:57 00:12:13 65° 259° (W) 00:16:31 437.525
BUGSAT 1 06 Dec 00:14:47 00:18:35 33° 97° (E) 00:22:19 437.445
JAS-2 06 Dec 00:23:23 00:28:25 53° 288° (WNW) 00:33:41 435.910
ESTCUBE 1 06 Dec 00:28:05 00:29:31 11° 269° (W) 00:30:58 437.505/2401.250
NANOSAT C BR1 06 Dec 00:29:40 00:33:47 52° 286° (WNW) 00:37:52 145.865
AISAT 06 Dec 00:33:20 00:36:43 21° 265° (W) 00:40:09 437.250
QB50P2 06 Dec 00:35:25 00:39:22 38° 288° (WNW) 00:43:17 145.880/145.840
POLYITAN 1 06 Dec 00:35:56 00:39:55 40° 288° (WNW) 00:43:52 437.675
ISS 06 Dec 00:40:00 00:41:35 13° 232° (SW) 00:43:11 145.825
50 SAT 06 Dec 00:40:19 00:42:29 16° 266° (W) 00:44:40 437.505
QB50P1 06 Dec 00:49:18 00:52:59 29° 290° (WNW) 00:56:39 145.935-145.965
DUCHIFAT 1 06 Dec 00:52:18 00:56:03 31° 289° (WNW) 00:59:45 145.980
Gurwin Techsat 1B 06 Dec 01:01:57 01:04:11 13° 90° (E) 01:06:27 435.225
AUBIESAT-1 06 Dec 01:02:16 01:05:24 21° 61° (ENE) 01:08:40 437.475
O/OREOS (USA 219) 06 Dec 01:03:41 01:06:35 17° 56° (ENE) 01:09:29 437.305
Oscar 19 06 Dec 01:05:46 01:10:14 28° 96° (E) 01:14:41 437.125/150
PHONESAT 2.4 06 Dec 01:11:21 01:13:58 61° 163° (SSE) 01:16:36 2401.200-2431.200
POPSAT HIP 1 06 Dec 01:11:28 01:14:20 18° 294° (WNW) 01:17:13 437.405
M-CUBED/EXP-1 PRIME 06 Dec 01:13:39 01:17:19 33° 65° (ENE) 01:21:15 437.505
Cosmos 2499 06 Dec 01:17:28 01:25:59 77° 279° (W) 01:34:55 435.465 / 435.565
SWISSCUBE 06 Dec 01:18:37 01:22:36 27° 68° (ENE) 01:26:36 437.505
BEESAT 06 Dec 01:22:42 01:26:40 27° 68° (ENE) 01:30:39 436.000
DX 1 06 Dec 01:26:33 01:27:51 11° 269° (W) 01:29:09 434.975-435.025
TISAT 1 06 Dec 01:30:46 01:34:50 46° 261° (W) 01:38:57 437.305
UKube-1 06 Dec 01:33:31 01:35:18 12° 268° (W) 01:37:06 .
GONETS M04 06 Dec 01:33:52 01:42:32 69° 279° (W) 01:51:14
AO-85 06 Dec 01:48:25 01:53:12 47° 117° (ESE) 01:57:40 145.980
ITUPSAT 1 06 Dec 01:49:29 01:54:05 49° 72° (ENE) 01:58:41 437.325
BUGSAT 1 06 Dec 01:50:42 01:53:41 19° 293° (WNW) 01:56:38 437.445
MOZHAYETS 4 06 Dec 02:30:03 02:34:01 29° 70° (ENE) 02:37:59
AUBIESAT-1 06 Dec 02:35:48 02:39:31 34° 259° (WSW) 02:43:31 437.475
Gurwin Techsat 1B 06 Dec 02:39:20 02:44:39 73° 285° (WNW) 02:49:56 435.225
O/OREOS (USA 219) 06 Dec 02:41:57 02:46:15 46° 253° (WSW) 02:50:30 437.305
Oscar 19 06 Dec 02:44:56 02:49:31 33° 292° (WNW) 02:54:06 437.125/150
PHONESAT 2.4 06 Dec 02:46:37 02:49:15 58° 358° (N) 02:51:51 2401.200-2431.200
AO-7 06 Dec 02:48:47 02:55:13 24° 94° (E) 03:01:36 29.400- 29.500
M-CUBED/EXP-1 PRIME 06 Dec 02:48:49 02:51:51 20° 262° (W) 02:55:05 437.505
SWISSCUBE 06 Dec 02:56:06 03:00:16 30° 263° (W) 03:04:27 437.505
BEESAT 06 Dec 03:00:08 03:04:18 30° 263° (W) 03:08:31 436.000
KKS-1 06 Dec 03:01:20 03:05:05 27° 69° (ENE) 03:08:52 437.445
STARS 06 Dec 03:08:57 03:11:33 15° 64° (ENE) 03:14:09 437.465
ITAMSAT 1 06 Dec 03:12:34 03:17:38 51° 100° (E) 03:22:38 435.822/435.867
Cosmos 2499 06 Dec 03:15:58 03:20:41 15° 299° (WNW) 03:25:31 435.465 / 435.565
ITUPSAT 1 06 Dec 03:29:10 03:32:09 16° 267° (W) 03:35:08 437.325
AO-85 06 Dec 03:30:02 03:33:48 22° 311° (NW) 03:37:23 145.980
GONETS M04 06 Dec 03:37:54 03:41:09 12° 301° (WNW) 03:44:23
MOZHAYETS 4 06 Dec 04:07:21 04:11:08 25° 265° (W) 04:14:55
CUBESAT XI-V 06 Dec 04:09:00 04:13:22 46° 72° (ENE) 04:17:45 437.345
PHONESAT 2.4 06 Dec 04:21:55 04:24:34 81° 192° (SSW) 04:27:12 2401.200-2431.200
KKS-1 06 Dec 04:37:50 04:41:34 26° 264° (W) 04:45:21 437.445
SO-50 06 Dec 04:37:56 04:42:05 34° 51° (NE) 04:46:10 436.795
BEESAT 3 06 Dec 04:39:17 04:42:47 33° 115° (ESE) 04:46:20 437.485
AO-7 06 Dec 04:40:15 04:48:34 71° 292° (WNW) 04:56:52 29.400- 29.500
STARS 06 Dec 04:43:12 04:47:28 48° 260° (W) 04:51:47 437.465
GOMX 1 06 Dec 04:49:52 04:52:22 13° 89° (E) 04:54:51 467.674
ITAMSAT 1 06 Dec 04:53:06 04:56:40 19° 297° (WNW) 05:00:14 435.822/435.867
BEESAT 2 06 Dec 05:08:24 05:11:52 31° 114° (ESE) 05:15:23 435.950
BRITE-PL 06 Dec 05:11:26 05:16:44 50° 99° (E) 05:22:13 437.365/2234.400
YUBILEINY 06 Dec 05:12:28 05:19:37 27° 68° (ENE) 05:26:43 435.215
NOAA 15 06 Dec 05:12:28 05:13:21 10° 89° (E) 05:14:10 137.62
Cosmos 2491 06 Dec 05:41:09 05:46:54 20° 79° (E) 05:52:37 435.465 / 435.565
HORYU 2 06 Dec 05:43:29 05:47:55 73° 102° (ESE) 05:52:19 437.375
CUBESAT XI-V 06 Dec 05:48:10 05:50:57 16° 268° (W) 05:53:46 437.345
AIST 1 06 Dec 05:52:43 05:53:26 10° 69° (ENE) 05:54:08
PHONESAT 2.4 06 Dec 05:57:42 05:59:32 17° 210° (SSW) 06:01:21 2401.200-2431.200
STRAND 1 06 Dec 06:08:53 06:13:24 32° 68° (ENE) 06:17:56 437.568
BEESAT 3 06 Dec 06:17:28 06:20:27 21° 311° (NW) 06:23:30 437.485
SO-50 06 Dec 06:18:45 06:22:21 24° 248° (WSW) 06:25:54 436.795
Cosmos 2504 06 Dec 06:19:23 06:27:12 34° 71° (ENE) 06:34:35 435.465 / 435.565
GOMX 1 06 Dec 06:25:26 06:30:55 77° 284° (WNW) 06:36:23 467.674
CUTE-I 06 Dec 06:25:47 06:31:00 53° 100° (E) 06:36:11 437.470
LilacSat-2 06 Dec 06:33:33 06:37:20 81° 101° (ESE) 06:41:05 437.200
NOAA 18 06 Dec 06:35:21 06:40:33 40° 99° (E) 06:45:41 137.9125
AO-7 06 Dec 06:35:24 06:39:52 16° 311° (NW) 06:44:20 29.400- 29.500
DOVE 4 06 Dec 06:35:54 06:41:09 60° 99° (E) 06:46:13 437.250
BEESAT 2 06 Dec 06:46:31 06:49:41 22° 311° (NW) 06:52:52 435.950
NOAA 15 06 Dec 06:48:24 06:53:42 85° 285° (WNW) 06:59:00 137.62
BRITE-PL 06 Dec 06:50:44 06:54:50 22° 294° (WNW) 06:59:05 437.365/2234.400
Cubesat XI-IV 06 Dec 06:51:41 06:57:03 89° 283° (WNW) 07:02:23 437.490
RS-15 06 Dec 06:57:00 07:08:03 51° 110° (ESE) 07:19:35 29.354- 29.394
HO-68 06 Dec 06:59:18 07:04:38 22° 93° (E) 07:09:55 435.675
YUBILEINY 06 Dec 07:08:20 07:17:02 65° 268° (W) 07:25:43 435.215
SEEDS 06 Dec 07:10:17 07:11:01 10° 90° (E) 07:11:45 437.485
HORYU 2 06 Dec 07:22:52 07:23:50 11° 298° (WNW) 07:24:48 437.375
AIST 1 06 Dec 07:27:06 07:31:29 65° 266° (W) 07:35:50
Cosmos 2491 06 Dec 07:33:50 07:42:38 80° 277° (W) 07:51:27 435.465 / 435.565
AIST 2 06 Dec 07:36:08 07:39:41 29° 113° (ESE) 07:43:18 435.215
STRAND 1 06 Dec 07:48:09 07:52:32 28° 264° (W) 07:56:57 437.568
CINEMA 3 06 Dec 07:54:01 07:58:52 87° 282° (WNW) 08:03:26 145.822/145.860
CUTE 1.7 + AOD 2 06 Dec 07:59:41 08:03:52 64° 101° (E) 08:08:03 437.475
CUTE-I 06 Dec 08:06:55 08:10:36 19° 297° (WNW) 08:14:17 437.470
GOMX 1 06 Dec 08:07:08 08:08:03 10° 300° (WNW) 08:08:59 467.674
CUBEBUG 2 06 Dec 08:11:35 08:15:32 33° 96° (E) 08:19:22 437.445
Cosmos 2504 06 Dec 08:12:28 08:20:50 51° 271° (W) 08:28:43 435.465 / 435.565
DOVE 4 06 Dec 08:14:53 08:18:16 17° 296° (WNW) 08:21:36 437.250
NOAA 18 06 Dec 08:16:25 08:20:58 27° 295° (WNW) 08:25:29 137.9125
CANX-2 06 Dec 08:17:45 08:21:56 66° 285° (WNW) 08:26:06 2200.000
AAUSAT CUBESAT 2 06 Dec 08:22:49 08:26:43 38° 98° (E) 08:30:35 437.432
NOAA 15 06 Dec 08:31:25 08:32:38 11° 301° (WNW) 08:33:51 137.62
PRISM 06 Dec 08:34:22 08:38:22 66° 75° (ENE) 08:42:26 437.425
Cubesat XI-IV 06 Dec 08:34:37 08:36:18 11° 301° (WNW) 08:37:59 437.490
Oscar 11 06 Dec 08:36:55 08:40:13 21° 94° (E) 08:43:30 145.826/435.025
SEEDS 06 Dec 08:42:56 08:47:02 58° 285° (WNW) 08:51:09 437.485
HO-68 06 Dec 08:45:42 08:52:50 67° 290° (WNW) 08:59:56 435.675
COMPASS 1 06 Dec 08:53:02 08:57:11 68° 283° (WNW) 09:01:18 437.405
UWE-3 06 Dec 08:53:31 08:57:47 63° 100° (E) 09:01:56 435.000/436.395/437.385
RS-15 06 Dec 09:09:09 09:20:33 51° 313° (NW) 09:32:30 29.354- 29.394
UNISAT 6 06 Dec 09:09:42 09:13:58 35° 71° (ENE) 09:18:12 437.425
AIST 2 06 Dec 09:14:43 09:18:08 25° 310° (NW) 09:21:37 435.215
DELFI C3 06 Dec 09:20:30 09:23:39 22° 95° (E) 09:26:46 145.870
DANDE 06 Dec 09:23:41 09:26:00 14° 95° (E) 09:28:03 436.750
HUMSAT D 06 Dec 09:26:24 09:28:17 13° 92° (E) 09:30:09 437.325/437.525
ZACube-1 06 Dec 09:34:15 09:38:29 72° 283° (WNW) 09:42:36 437.345
Cosmos 2491 06 Dec 09:36:14 09:40:57 15° 299° (WNW) 09:45:41 435.465 / 435.565
CUTE 1.7 + AOD 2 06 Dec 09:38:07 09:39:09 11° 296° (WNW) 09:40:09 437.475
TIGRISAT 06 Dec 09:39:10 09:43:50 68° 74° (ENE) 09:48:27 435.000
ANTELSAT 06 Dec 09:40:40 09:45:21 75° 75° (ENE) 09:50:00 437.575/2403.000
FUNcube-1 06 Dec 09:41:53 09:46:04 64° 284° (WNW) 09:50:09 145.935
CUBEBUG 2 06 Dec 09:48:42 09:51:55 20° 293° (WNW) 09:55:04 437.445
QB50P2 06 Dec 09:53:39 09:55:05 11° 63° (ENE) 09:56:30 145.880/145.840
POLYITAN 1 06 Dec 09:54:27 09:55:37 11° 63° (ENE) 09:56:48 437.675
AAUSAT CUBESAT 2 06 Dec 09:59:15 10:01:51 16° 293° (WNW) 10:04:27 437.432
QB50P1 06 Dec 10:06:03 10:08:27 15° 65° (ENE) 10:10:53 145.935-145.965
DUCHIFAT 1 06 Dec 10:08:55 10:11:02 14° 65° (ENE) 10:13:09 145.980
Oscar 11 06 Dec 10:12:35 10:16:21 30° 290° (WNW) 10:20:07 145.826/435.025
CUSAT 1 06 Dec 10:17:44 10:20:18 22° 282° (WNW) 10:22:35 437.405
AO-85 06 Dec 10:21:41 10:24:58 24° 49° (NE) 10:28:12 145.980
POPSAT HIP 1 06 Dec 10:26:23 10:29:50 24° 69° (ENE) 10:33:18 437.405
UWE-3 06 Dec 10:32:27 10:33:38 11° 297° (WNW) 10:34:49 435.000/436.395/437.385
JAS-2 06 Dec 10:33:25 10:39:46 56° 73° (ENE) 10:45:26 435.910
HO-68 06 Dec 10:36:35 10:39:11 12° 308° (NW) 10:41:49 435.675
PCSat 06 Dec 10:41:18 10:45:41 26° 107° (ESE) 10:50:06 145.827
ESTCUBE 1 06 Dec 10:43:05 10:45:28 14° 92° (E) 10:47:51 437.505/2401.250
UNISAT 6 06 Dec 10:47:05 10:50:42 22° 266° (W) 10:54:19 437.425
DELFI C3 06 Dec 10:55:06 10:58:23 25° 290° (WNW) 11:01:40 145.870
HUMSAT D 06 Dec 11:00:14 11:04:07 44° 287° (WNW) 11:07:59 437.325/437.525
BUGSAT 1 06 Dec 11:03:35 11:06:45 21° 68° (ENE) 11:09:56 437.445
DANDE 06 Dec 11:04:13 11:08:37 36° 280° (W) 11:12:02 436.750
Cosmos 2499 06 Dec 11:11:15 11:19:06 38° 72° (ENE) 11:26:25 435.465 / 435.565
CUBEBUG 1 06 Dec 11:13:21 11:16:26 18° 93° (E) 11:19:30 437.445
TIGRISAT 06 Dec 11:19:33 11:20:54 11° 270° (W) 11:22:17 435.000
NANOSAT C BR1 06 Dec 11:19:53 11:24:08 86° 253° (WSW) 11:28:26 145.865
VELOX 1 06 Dec 11:25:07 11:27:54 16° 93° (E) 11:30:40 145.980
QB50P2 06 Dec 11:26:04 11:30:19 63° 259° (W) 11:34:35 145.880/145.840
POLYITAN 1 06 Dec 11:26:34 11:30:50 66° 259° (W) 11:35:07 437.675
RS-15 06 Dec 11:28:21 11:37:07 22° 344° (NNW) 11:46:02 29.354- 29.394
DX 1 06 Dec 11:38:49 11:40:05 11° 91° (E) 11:41:21 434.975-435.025
QB50P1 06 Dec 11:39:42 11:43:49 46° 261° (W) 11:47:58 145.935-145.965
DUCHIFAT 1 06 Dec 11:42:06 11:46:14 51° 260° (W) 11:50:25 145.980
GONETS M04 06 Dec 11:45:32 11:54:07 57° 78° (ENE) 12:02:40
SPROUT 06 Dec 11:55:31 11:58:55 22° 95° (E) 12:02:17 437.525
POPSAT HIP 1 06 Dec 12:01:50 12:05:29 27° 264° (W) 12:09:09 437.405
AO-85 06 Dec 12:02:02 12:05:17 25° 247° (WSW) 12:08:31 145.980
50 SAT 06 Dec 12:06:05 12:09:24 35° 99° (E) 12:12:42 437.505
ESTCUBE 1 06 Dec 12:18:10 12:22:32 51° 287° (WNW) 12:26:54 437.505/2401.250
JAS-2 06 Dec 12:20:15 12:25:01 21° 265° (W) 12:29:26 435.910
Gurwin Techsat 1B 06 Dec 12:21:16 12:25:00 20° 64° (ENE) 12:28:45 435.225
Oscar 19 06 Dec 12:21:24 12:26:03 37° 69° (ENE) 12:30:45 437.125/150
AISAT 06 Dec 12:23:12 12:27:42 77° 102° (ESE) 12:32:09 437.250
PCSat 06 Dec 12:23:44 12:28:50 42° 304° (NW) 12:33:58 145.827
BUGSAT 1 06 Dec 12:38:08 12:41:54 31° 263° (W) 12:45:42 437.445
CUBEBUG 1 06 Dec 12:48:43 12:52:49 38° 289° (WNW) 12:56:54 437.445
BEESAT 3 06 Dec 12:57:46 13:00:19 16° 46° (NE) 13:02:52 437.485
VELOX 1 06 Dec 13:00:18 13:04:32 43° 288° (WNW) 13:08:46 145.980
Cosmos 2499 06 Dec 13:04:21 13:12:15 43° 273° (W) 13:19:38 435.465 / 435.565
JUGNU 06 Dec 13:06:57 13:08:44 11° 181° (S) 13:10:33 437.505
DX 1 06 Dec 13:12:17 13:16:38 61° 286° (WNW) 13:20:56 434.975-435.025
TISAT 1 06 Dec 13:15:56 13:19:35 28° 96° (E) 13:23:12 437.305
UKube-1 06 Dec 13:18:41 13:23:00 70° 286° (WNW) 13:27:18 .
BEESAT 2 06 Dec 13:27:42 13:30:13 16° 46° (NE) 13:32:44 435.950
SPROUT 06 Dec 13:31:07 13:34:49 28° 290° (WNW) 13:38:29 437.525
50 SAT 06 Dec 13:40:43 13:42:21 13° 293° (WNW) 13:43:59 437.505
GONETS M04 06 Dec 13:43:15 13:50:20 29° 277° (W) 13:57:27
AO-7 06 Dec 13:46:36 13:53:36 32° 59° (ENE) 14:00:39 29.400- 29.500
RS-15 06 Dec 13:46:42 13:56:01 23° 21° (NNE) 14:05:13 29.354- 29.394
ITUPSAT 1 06 Dec 13:52:49 13:55:08 13° 91° (E) 13:57:26 437.325
Gurwin Techsat 1B 06 Dec 13:59:21 14:04:32 52° 260° (W) 14:09:43 435.225
Oscar 19 06 Dec 14:01:17 14:05:25 25° 265° (W) 14:09:35 437.125/150
AISAT 06 Dec 14:02:50 14:03:30 10° 298° (WNW) 14:04:08 437.250
AUBIESAT-1 06 Dec 14:15:52 14:19:05 19° 97° (E) 14:22:11 437.475
M-CUBED/EXP-1 PRIME 06 Dec 14:27:46 14:31:57 32° 101° (E) 14:35:56 437.505
ITAMSAT 1 06 Dec 14:29:11 14:34:22 71° 74° (ENE) 14:39:34 435.822/435.867
BEESAT 3 06 Dec 14:34:21 14:38:13 48° 243° (WSW) 14:42:02 437.485
SRMSAT 06 Dec 14:47:04 14:48:23 11° 176° (S) 14:49:41 437.500
TISAT 1 06 Dec 14:51:45 14:55:04 23° 292° (WNW) 14:58:22 437.305
SWISSCUBE 06 Dec 14:56:34 15:01:20 75° 103° (ESE) 15:06:04 437.505
BEESAT 06 Dec 15:00:34 15:05:20 74° 103° (ESE) 15:10:04 436.000
BEESAT 2 06 Dec 15:04:22 15:08:18 52° 243° (WSW) 15:12:12 435.950
O/OREOS (USA 219) 06 Dec 15:14:32 15:18:04 22° 102° (ESE) 15:21:36 437.305
ITUPSAT 1 06 Dec 15:28:38 15:33:19 58° 287° (WNW) 15:37:58 437.325
AO-7 06 Dec 15:37:46 15:45:54 59° 257° (WSW) 15:54:06 29.400- 29.500
ISS 06 Dec 15:41:27 15:44:29 35° 135° (SE) 15:47:31 145.825
AUBIESAT-1 06 Dec 15:49:19 15:53:38 41° 293° (WNW) 15:57:45 437.475
GOMX 1 06 Dec 15:58:41 15:59:34 10° 60° (ENE) 16:00:27 467.674
AIST 2 06 Dec 15:58:44 16:01:32 17° 46° (NE) 16:04:19 435.215
RS-15 06 Dec 15:59:53 16:12:05 58° 51° (NE) 16:23:52 29.354- 29.394
M-CUBED/EXP-1 PRIME 06 Dec 16:02:21 16:06:13 26° 297° (WNW) 16:09:58 437.505
MOZHAYETS 4 06 Dec 16:02:24 16:06:58 82° 102° (ESE) 16:11:32
CUBESAT XI-V 06 Dec 16:08:23 16:10:26 13° 91° (E) 16:12:28 437.345
ITAMSAT 1 06 Dec 16:11:59 16:14:19 13° 269° (W) 16:16:37 435.822/435.867
BRITE-PL 06 Dec 16:21:47 16:25:49 42° 71° (ENE) 16:30:08 437.365/2234.400
KKS-1 06 Dec 16:28:57 16:33:25 63° 101° (ESE) 16:37:51 437.445
NOAA 15 06 Dec 16:30:02 16:33:18 17° 62° (ENE) 16:36:35 137.62
STARS 06 Dec 16:33:49 16:37:46 31° 97° (E) 16:41:41 437.465
Cubesat XI-IV 06 Dec 16:34:53 16:38:17 17° 62° (ENE) 16:41:41 437.490
SRMSAT 06 Dec 16:35:56 16:36:36 10° 186° (S) 16:37:16 437.500
SWISSCUBE 06 Dec 16:36:48 16:38:28 12° 299° (WNW) 16:40:07 437.505
HORYU 2 06 Dec 16:39:55 16:44:19 57° 73° (ENE) 16:48:43 437.375
BEESAT 06 Dec 16:40:42 16:42:28 12° 299° (WNW) 16:44:14 436.000
O/OREOS (USA 219) 06 Dec 16:53:08 16:57:16 33° 298° (WNW) 17:01:22 437.305
LilacSat-2 06 Dec 17:14:14 17:17:40 32° 72° (ENE) 17:21:07 437.200
ISS 06 Dec 17:18:10 17:21:01 26° 331° (NNW) 17:23:54 145.825
HO-68 06 Dec 17:28:50 17:32:44 16° 54° (NE) 17:36:38 435.675
GOMX 1 06 Dec 17:32:15 17:36:47 83° 260° (W) 17:41:41 467.674
AIST 2 06 Dec 17:36:11 17:40:19 53° 243° (WSW) 17:44:25 435.215
DOVE 4 06 Dec 17:39:40 17:44:15 49° 72° (ENE) 17:49:08 437.250
CUBESAT XI-V 06 Dec 17:43:34 17:48:09 60° 286° (WNW) 17:52:45 437.345
Cosmos 2491 06 Dec 17:45:54 17:54:18 49° 76° (ENE) 18:02:38 435.465 / 435.565
CUTE-I 06 Dec 17:46:16 17:51:37 78° 75° (ENE) 17:57:00 437.470
NOAA 18 06 Dec 18:00:16 18:05:45 68° 73° (ENE) 18:11:17 137.9125
BRITE-PL 06 Dec 18:02:02 18:04:37 15° 270° (W) 18:07:17 437.365/2234.400
NOAA 15 06 Dec 18:07:24 18:12:34 60° 259° (WSW) 18:17:45 137.62
KKS-1 06 Dec 18:07:33 18:09:25 12° 297° (WNW) 18:11:17 437.445
STARS 06 Dec 18:10:30 18:13:56 22° 293° (WNW) 18:17:19 437.465
